Historyczne dane pomiarowe

Dodano dane terminowe – wersja testowa.

Dane z okresu 1951-2019

Wersja bazy: 1.34 [2019-03-16, lista zmian], aktualizacja planowana na 2019-04-15

Dane meteo z obszaru Polski uzyskane na podstawie danych udostępnionych przez Instytut Meteorologii i Gospodarki Wodnej – Państwowy Instytut Badawczy.

 

Wybierz Datę:    

       

TemperaturaWilgotnośćWiatrCiśnienieOpadyŚniegCzas trwania zjawisk
 Stacja t tx tn tng RH VA  wxwx mslp ppp RRR   cm mm wxwxwxwxwxwxwx
2019-10-31 2.4 7.3 -1.6 -4.2 79.0 5.7- 1.8--1028.51000.6 0.0 0.0 0.0- 0.0--------
2019-10-30 1.5 6.1 -2.5 -5.1 87.6 5.9- 2.8--1028.51000.5 0.1 0.1 0.0- 0.0--------
2019-10-29 5.3 7.9 2.9 1.5 86.8 7.7- 3.1--1021.1 993.6 0.0 0.0 0.0- 0.0--------
2019-10-28 7.2 13.4 3.9 2.5 84.9 8.6- 3.6--1019.0 991.7 0.0 0.0 0.0- 0.0--------
2019-10-27 14.9 21.3 8.5 3.7 65.1 10.7- 5.1--1015.7 989.3 2.0 0.0 2.0- 0.0--------
2019-10-26 10.5 19.9 3.8 2.5 82.8 10.3- 1.8--1022.6 995.6 0.0 0.0 0.0- 0.0--------
2019-10-25 12.2 21.7 3.6 0.8 75.8 10.3- 2.8--1019.7 992.8 0.1 0.0 0.1- 0.0--------
2019-10-24 13.8 24.8 7.6 6.3 78.6 11.8- 2.8--1017.5 990.9 0.0 0.0 0.0- 0.0--------
2019-10-23 11.0 17.7 5.5 4.0 94.1 12.5- 0.9--1022.5 995.6 0.4 0.1 0.3- 0.0--------
2019-10-22 12.3 21.5 5.1 3.1 82.4 11.6- 1.6--1023.4 996.5 0.0 0.0 0.0- 0.0--------
2019-10-21 13.6 22.5 6.4 3.1 76.0 11.4- 2.1--1020.5 993.8 0.0 0.0 0.0- 0.0--------
2019-10-20 15.0 22.9 8.4 4.6 69.4 11.4- 3.4--1017.3 990.8 0.0 0.0 0.0- 0.0--------
2019-10-19 14.7 20.6 8.2 4.8 73.1 11.9- 2.9--1015.9 989.4 0.0 0.0 0.0- 0.0--------
2019-10-18 11.6 21.2 3.6 0.9 78.3 10.4- 1.6--1016.9 990.1 0.0 0.0 0.0- 0.0--------
2019-10-17 12.9 19.4 7.8 5.8 71.3 10.1- 2.5--1019.2 992.4 0.0 0.0 0.0- 0.0--------
2019-10-16 16.4 23.8 9.0 5.5 64.1 11.4- 4.6--1013.9 987.6 0.0 0.0 0.0- 0.0--------
2019-10-15 14.8 24.2 5.6 3.3 70.3 11.2- 2.3--1016.5 990.1 0.0 0.0 0.0- 0.0--------
2019-10-14 14.9 23.7 7.6 4.1 74.6 12.2- 3.4--1019.4 992.9 0.0 0.0 0.0- 0.0--------
2019-10-13 15.9 22.5 11.5 9.1 61.8 11.0- 4.9--1019.6 993.1 0.0 0.0 0.0- 0.0--------
2019-10-12 14.3 19.9 10.0 8.9 62.3 10.0- 7.8--1017.1 990.6 0.0 0.0 0.0- 0.0--------
2019-10-11 10.5 15.1 7.0 3.5 78.5 9.8- 5.6--1019.6 992.7 0.0 0.0 0.0- 0.0--------
2019-10-10 10.7 14.0 7.7 4.2 83.1 10.6- 6.0--1011.8 985.0 2.9 0.9 2.0- 0.0--------
2019-10-09 10.1 14.7 6.9 6.5 78.8 9.7- 5.1--1012.3 985.5 5.8 0.1 5.7- 0.0--------
2019-10-08 5.9 10.0 -0.3 -1.4 68.1 6.2- 5.3--1017.5 990.2 0.2 0.0 0.2- 0.0--------
2019-10-07 2.1 7.3 -2.9 -6.0 85.9 6.1- 3.0--1020.0 992.2 0.8 0.8 0.0- 0.0--------
2019-10-06 4.6 7.3 1.6 0.1 81.6 7.0- 4.0--1017.3 989.9 0.2 0.2 0.0- 0.0--------
2019-10-05 7.7 11.1 6.2 5.9 88.6 9.2- 2.5--1011.4 984.4 3.7 2.2 1.5- 0.0--------
2019-10-04 7.3 10.5 4.0 2.3 86.8 8.8- 2.0--1013.7 986.6 0.3 0.0 0.3- 0.0--------
2019-10-03 8.4 18.5 6.2 5.5 90.4 10.0- 3.6--1010.4 983.5 2.0 2.0 0.0- 0.0--------
2019-10-02 18.2 24.9 13.7 12.5 57.0 11.7- 5.4--1003.7 977.8 6.2 0.0 6.2- 0.0--------
2019-10-01 14.3 19.0 10.1 9.4 67.3 10.7- 6.8--1008.3 982.0 0.0 0.0 0.0- 0.0--------
2019-09-30 15.7 20.9 12.6 11.8 72.6 12.9- 10.1--1000.2 974.2 3.9 0.5 0.0- 0.0--------
2019-09-29 14.6 20.1 9.8 9.0 75.5 12.2- 5.6--1010.8 984.5 0.0 0.0 0.0- 0.0--------
2019-09-28 15.0 19.5 12.5 10.5 85.1 14.4- 4.0--1013.8 987.4 1.9 1.9 0.0- 0.0--------
2019-09-27 14.2 18.7 11.7 10.4 87.5 14.0- 2.1--1015.5 989.0 0.8 0.0 0.8- 0.0--------
2019-09-26 14.0 16.8 12.9 12.2 91.9 14.6- 3.8--1010.9 984.5 0.0 0.0 0.0- 0.0--------
2019-09-25 11.2 18.4 2.7 -0.5 86.0 11.6- 2.0--1011.6 984.9 3.2 1.8 1.4- 0.0--------
2019-09-24 9.4 16.9 3.4 0.1 79.4 9.1- 2.6--1017.1 990.1 0.0 0.0 0.0- 0.0--------
2019-09-23 8.3 11.4 2.8 0.5 90.0 9.9- 3.3--1018.6 991.5 0.0 0.0 0.0- 0.0--------
2019-09-22 12.9 21.1 7.3 6.4 68.9 9.7- 3.8--1018.8 992.1 0.0 0.0 0.0- 0.0--------
2019-09-21 10.1 15.6 2.0 0.2 79.3 9.8- 4.8--1024.1 997.0 0.1 0.1 0.0- 0.0--------
2019-09-20 7.5 13.9 3.7 2.6 74.4 7.5- 5.3--1024.9 997.5 0.2 0.0 0.2- 0.0--------
2019-09-19 8.9 13.5 5.3 4.5 76.0 8.6- 5.1--1021.8 994.7 0.0 0.0 0.0- 0.0--------
2019-09-18 9.4 13.9 6.4 5.7 73.1 8.4- 9.3--1014.0 987.1 2.2 2.2 0.0- 0.0--------
2019-09-17 12.2 16.4 5.9 3.1 63.5 8.8- 5.9--1011.2 984.6 0.5 0.0 0.5- 0.0--------
2019-09-16 15.5 20.2 13.8 12.7 62.6 10.8- 5.9--1014.6 988.3 0.0 0.0 0.0- 0.0--------
2019-09-15 13.5 20.8 4.0 1.2 60.1 8.7- 4.4--1023.4 996.6 0.0 0.0 0.0- 0.0--------
2019-09-14 13.5 19.3 10.0 8.3 65.4 9.9- 4.4--1029.11002.2 0.0 0.0 0.0- 0.0--------
2019-09-13 17.1 23.6 8.9 5.4 69.9 13.2- 3.6--1027.01000.5 0.0 0.0 0.0- 0.0--------
2019-09-12 16.9 24.8 9.2 7.3 67.9 12.3- 2.5--1026.71000.2 0.0 0.0 0.0- 0.0--------
2019-09-11 16.4 25.1 8.2 5.5 70.9 12.6- 1.4--1024.4 997.8 0.0 0.0 0.0- 0.0--------
2019-09-10 15.6 20.8 12.3 9.7 69.4 12.0- 3.4--1019.8 993.4 0.0 0.0 0.0- 0.0--------
2019-09-09 19.8 25.9 13.0 9.0 57.0 12.2- 4.5--1015.0 989.0 0.1 0.0 0.1- 0.0--------
2019-09-08 18.3 24.0 13.7 11.9 72.9 15.1- 2.9--1018.0 991.9 0.0 0.0 0.0- 0.0--------
2019-09-07 16.7 23.9 8.0 6.2 70.5 13.0- 2.5--1019.6 993.3 0.0 0.0 0.0- 0.0--------
2019-09-06 15.7 21.4 9.5 7.5 69.5 11.8- 3.3--1021.2 994.7 0.0 0.0 0.0- 0.0--------
2019-09-05 15.4 22.7 7.7 5.0 73.6 12.3- 1.9--1016.6 990.2 0.0 0.0 0.0- 0.0--------
2019-09-04 14.6 21.5 9.6 6.5 79.3 12.6- 1.9--1020.7 994.1 0.0 0.0 0.0- 0.0--------
2019-09-03 14.0 21.1 12.7 12.6 89.1 14.3- 4.1--1021.3 994.7 0.5 0.5 0.0- 0.0--------
2019-09-02 21.4 27.4 14.5 11.3 73.9 18.5- 3.4--1014.3 988.5 15.1 0.0 15.1- 0.0--------
101.9 ms

 

Źródłem pochodzenia danych jest Instytut Meteorologii i Gospodarki Wodnej – Państwowy Instytut Badawczy. Dane Instytutu Meteorologii i Gospodarki Wodnej – Państwowego Instytutu Badawczego zostały przetworzone.

Dane źródłowe można odnaleźć na stronie https://dane.imgw.pl